GPS BIIF-12

Last updated on Sat Jun 27 2026 00:02:55 GMT+0000 (Coordinated Universal Time)

1 41328U 16007A 26177.34308399 -.00000066 00000+0 00000+0 0 9995 2 41328 55.5293 89.0967 0095637 247.1706 111.8201 2.00551441 76026
UTC large
Height (km)
Speed (km/s)
/
Latitude / Longitude
Inclination (degrees)
Orbital Period (minutes)
Azimuth
Elevation
Range (km)
Doppler Factor

Next 0 passes for location: London (51.5072 / 0.1276)

No passes found over London.
GPS BIIF-12